World > North America > United States > New York
Hourly regional weather for West Oneonta, New YorkWest Oneonta, New York Regional Hourly Weather

West Oneonta, New York Regional Weather

regional weather west oneonta, nyHOURLY REGIONAL WEATHER FOR WEST ONEONTA, NY
Lat: 42.47N, Lon: 75.12W 
Web Search

Did you know? You can add this page to Bookmarks by pressing the Ctrl key & d key at the same time. Mac users press command & d.

Feedback


°F Click to change West Oneonta hourly weather to Imperial units.Click to change West Oneonta hourly weather to Metric units. °C
West Oneonta Weather Map
UTC Time: 8/3/2021, 08:03
Your Time:

West Oneonta, NY Regional Weather

Expires:202108030800;;896393
ASUS41 KBGM 030710
RWRBGM

REGIONAL WEATHER ROUNDUP
NATIONAL WEATHER SERVICE BINGHAMTON NY
300 AM EDT TUE AUG 03 2021

Note: "fair" indicates few or no clouds below 12,000 feet with no
significant weather and/or obstructions to visibility.

* = Station(s) that does not report precipitation, such as rain, 
snow, etc, also no thunder or fog.


NYZ009-015>018-022>025-036-037-044>046-055>057-062-030800
...Central New York...
  
CITY           SKY/WX    TMP DP  RH WIND       PRES   REMARKS
Binghamton     CLEAR     52  47  83 S5        30.13F                  
Cortland       FAIR      45  45 100 CALM      30.14S                  
Dansville      CLEAR     52  49  89 SE3       30.14F                  
Elmira         CLEAR     49  48  97 CALM      30.14S                  
Endicott       FAIR      48  48 100 CALM      30.14                   
Ithaca         CLEAR     49  47  93 E6        30.14S                  
Monticello     CLEAR     47  47 100 NW5       30.15S                  
Norwich        FAIR      46  46 100 CALM      30.15                   
Oneonta        FAIR      46  46 100 CALM      30.14                   
Penn Yan       CLEAR     55  51  86 SW5       30.13S                  
Rome           CLEAR     52  49  89 SE5       30.12F                  
Seneca Falls   FAIR      55  50  82 CALM      30.12                   
Sidney         FOG       45  45 100 CALM      30.15  VSB 1/4          
Skaneateles    FAIR      50  50 100 CALM      30.12S                  
Syracuse       CLEAR     56  47  71 CALM      30.11S                  
$$
 

SKY/WX - Weather  TMP - Temperature  DP - Dew Point  RH - Relative Humidity
WIND - Wind Direction/Speed PRES - Barometric Pressure VSB - Visibility
WCI - Wind Chill Index E13G22 Wind - East Wind 13 mph/Gusts of 22 mph